TimeEDT,TemperatureF,Dew PointF,Humidity,Sea Level PressureIn,VisibilityMPH,Wind Direction,Wind SpeedMPH,Gust SpeedMPH,PrecipitationIn,Events,Conditions,WindDirDegrees,DateUTC
12:56 AM,46.0,39.9,79,30.19,10.0,Calm,Calm,-,N/A,,Clear,0,2013-05-14 04:56:00
1:56 AM,48.0,39.9,74,30.20,10.0,Calm,Calm,-,N/A,,Clear,0,2013-05-14 05:56:00
2:56 AM,44.1,39.9,85,30.20,10.0,ENE,6.9,-,N/A,,Clear,60,2013-05-14 06:56:00
3:56 AM,44.1,39.9,85,30.21,10.0,Calm,Calm,-,N/A,,Clear,0,2013-05-14 07:56:00
4:56 AM,43.0,39.9,89,30.20,10.0,ENE,3.5,-,N/A,,Clear,70,2013-05-14 08:56:00
5:56 AM,43.0,39.9,89,30.21,10.0,Calm,Calm,-,N/A,,Clear,0,2013-05-14 09:56:00
6:56 AM,43.0,41.0,93,30.22,10.0,Calm,Calm,-,N/A,,Clear,0,2013-05-14 10:56:00
7:56 AM,50.0,44.1,80,30.24,10.0,Calm,Calm,-,N/A,,Clear,0,2013-05-14 11:56:00
8:56 AM,55.9,46.0,69,30.25,10.0,Calm,Calm,-,N/A,,Clear,0,2013-05-14 12:56:00
9:56 AM,61.0,42.1,50,30.25,10.0,Calm,Calm,-,N/A,,Clear,0,2013-05-14 13:56:00
10:56 AM,64.9,37.9,37,30.26,10.0,SSW,3.5,-,N/A,,Clear,210,2013-05-14 14:56:00
11:56 AM,66.9,37.9,34,30.26,10.0,SSW,9.2,-,N/A,,Clear,200,2013-05-14 15:56:00
12:56 PM,69.1,37.9,32,30.25,10.0,SSW,10.4,-,N/A,,Clear,210,2013-05-14 16:56:00
1:56 PM,70.0,41.0,35,30.22,10.0,Variable,6.9,-,N/A,,Clear,0,2013-05-14 17:56:00
2:56 PM,72.0,43.0,35,30.19,10.0,WSW,9.2,19.6,N/A,,Clear,250,2013-05-14 18:56:00
3:56 PM,73.0,44.1,35,30.16,10.0,SW,12.7,19.6,N/A,,Clear,220,2013-05-14 19:56:00
4:56 PM,75.0,46.0,36,30.14,10.0,SSW,12.7,-,N/A,,Clear,210,2013-05-14 20:56:00
5:56 PM,75.0,46.9,37,30.13,10.0,SW,13.8,20.7,N/A,,Clear,220,2013-05-14 21:56:00
6:56 PM,75.0,50.0,41,30.11,10.0,SSW,15.0,-,N/A,,Clear,210,2013-05-14 22:56:00
7:56 PM,72.0,51.1,48,30.10,10.0,SSW,11.5,-,N/A,,Clear,200,2013-05-14 23:56:00
8:56 PM,68.0,51.1,55,30.10,10.0,SSW,9.2,-,N/A,,Clear,200,2013-05-15 00:56:00
9:56 PM,66.9,51.1,57,30.11,10.0,SSW,9.2,-,N/A,,Clear,210,2013-05-15 01:56:00
10:56 PM,64.0,52.0,65,30.11,10.0,SSW,6.9,-,N/A,,Clear,210,2013-05-15 02:56:00